Location: Croissy-Beaubourg
(48.8283°N, 2.6696°E)
Time: 00:20:16
(UTC+00:00)

USA 215 - Pass Details

Date: 25 May 2022
Orbit: 1099 x 1108 km, 123.0° (Epoch: 10 June)

Event Time Altitude Azimuth Distance (km) Brightness Sun altitude
Rises 20:52:27 0° 64° (ENE) 3,928 6.0 -10.1°
Reaches altitude 10° 20:56:12 10° 86° (E) 2,967 5.2 -10.5°
Maximum altitude 20:59:54 16° 121° (ESE) 2,567 4.6 -10.9°
Enters shadow 21:01:47 14° 140° (SE) 2,675 4.6 -11.1°
